TimePST,TemperatureF,Dew PointF,Humidity,Sea Level PressureIn,VisibilityMPH,Wind Direction,Wind SpeedMPH,Gust SpeedMPH,PrecipitationIn,Events,Conditions,WindDirDegrees,DateUTC
12:53 AM,53.1,19.9,27,30.06,10.0,Calm,Calm,-,N/A,,Clear,0,2014-02-02 08:53:00
1:53 AM,50.0,21.9,33,30.07,10.0,Calm,Calm,-,N/A,,Clear,0,2014-02-02 09:53:00
2:53 AM,48.9,21.9,35,30.07,10.0,NNE,3.5,-,N/A,,Clear,20,2014-02-02 10:53:00
3:53 AM,48.0,23.0,37,30.06,10.0,East,3.5,-,N/A,,Mostly Cloudy,100,2014-02-02 11:53:00
4:53 AM,48.0,19.9,33,30.06,10.0,Calm,Calm,-,N/A,,Mostly Cloudy,0,2014-02-02 12:53:00
5:53 AM,48.0,19.0,32,30.06,10.0,East,4.6,-,N/A,,Mostly Cloudy,80,2014-02-02 13:53:00
6:53 AM,48.0,19.9,33,30.08,10.0,East,5.8,-,N/A,,Mostly Cloudy,90,2014-02-02 14:53:00
7:53 AM,52.0,19.0,27,30.08,10.0,East,6.9,-,N/A,,Mostly Cloudy,80,2014-02-02 15:53:00
8:53 AM,55.9,25.0,30,30.09,10.0,ESE,9.2,-,N/A,,Mostly Cloudy,110,2014-02-02 16:53:00
9:53 AM,57.9,33.1,39,30.09,10.0,ESE,10.4,-,N/A,,Mostly Cloudy,120,2014-02-02 17:53:00
10:53 AM,59.0,36.0,42,30.07,10.0,ESE,11.5,-,N/A,,Mostly Cloudy,120,2014-02-02 18:53:00
11:53 AM,61.0,46.0,58,30.05,10.0,SE,11.5,18.4,N/A,,Scattered Clouds,130,2014-02-02 19:53:00
12:53 PM,61.0,44.1,54,30.01,10.0,SSW,10.4,-,N/A,,Mostly Cloudy,210,2014-02-02 20:53:00
1:53 PM,61.0,46.0,58,29.99,10.0,SSW,13.8,-,N/A,,Mostly Cloudy,200,2014-02-02 21:53:00
2:53 PM,59.0,45.0,60,30.00,10.0,West,15.0,-,N/A,,Scattered Clouds,260,2014-02-02 22:53:00
3:53 PM,57.9,43.0,58,30.00,10.0,West,6.9,-,N/A,,Mostly Cloudy,270,2014-02-02 23:53:00
4:53 PM,57.0,44.1,62,30.00,10.0,West,9.2,-,N/A,,Overcast,270,2014-02-03 00:53:00
5:53 PM,55.0,45.0,69,30.00,7.0,West,5.8,-,0.02,Rain,Light Rain,270,2014-02-03 01:53:00
6:53 PM,54.0,41.0,62,30.01,10.0,West,8.1,-,0.01,,Overcast,270,2014-02-03 02:53:00
7:53 PM,52.0,42.1,69,30.01,7.0,Variable,4.6,-,0.05,Rain,Rain,0,2014-02-03 03:53:00
8:53 PM,51.1,43.0,74,29.99,10.0,East,8.1,-,0.01,,Overcast,80,2014-02-03 04:53:00
9:53 PM,50.0,43.0,77,29.98,10.0,East,10.4,-,N/A,,Mostly Cloudy,90,2014-02-03 05:53:00
10:53 PM,51.1,43.0,74,29.97,10.0,ENE,11.5,-,N/A,,Mostly Cloudy,70,2014-02-03 06:53:00
11:53 PM,51.1,41.0,68,29.97,10.0,East,8.1,-,N/A,,Mostly Cloudy,100,2014-02-03 07:53:00